Home > Weather > Labrador City > Past weeks

Flag for Canada Past Weather in Labrador City, Newfoundland and Labrador, Canada — Yesterday and Last 2 Weeks

Now
39 °F

Fog.


Feels Like: 37 °F
Forecast: 36 / 60 °F
Wind: 3 mph from East

Location: Wabush Lake

Current Time: Jun 29, 2016 at 6:20:47 AM

Latest Report: Jun 29, 2016 at 6:00 AM


Visibility: 0 mi

Pressure: 30.18 "Hg (28.17 "Hg at 558m altitude)

Humidity: 100%

Dew Point: 39 °F

Location of Labrador CityLocation

Past Weather in Labrador City — Graph

°F

Labrador City Temperature Yesterday

Maximum temperature yesterday: 59 °F (at 2:00 AM)
Minimum temperature yesterday: 41 °F (at 10:00 AM)
Average temperature yesterday: 48 °F

High & Low Weather Summary for the Past Weeks

 TemperatureHumidityPressure
High81 °F (Jun 18, 4:00 PM)100% (Jun 18, 5:00 AM)30.16 "Hg (Jun 18, 5:00 AM)
Low34 °F (Jun 23, 3:00 AM)19% (Jun 18, 1:00 PM)29.26 "Hg (Jun 21, 8:49 AM)
Average54 °F71%29.83 "Hg
* Reported Jun 14 5:00 AM — Jun 29 5:00 AM, Labrador City, Weather by CustomWeather, © 2016

Note: Actual official high and low records may vary slightly from our data, if they occured in-between our weather recording intervals... More about our weather records

Advertising

Labrador City Weather History for the Previous 24 Hours

Scroll right to see more
 ConditionsComfort  
Time TempWeatherWind HumidityBarometerVisibility
5:00 AM
Wed, Jun 29
36 °FFog.5 mph100%30.16 "Hg0 mi
4:04 AM36 °FFog.5 mph100%30.15 "Hg1 mi
3:00 AM37 °FFog.No wind100%30.14 "Hg1 mi
2:00 AM37 °FFog.5 mph93%30.13 "Hg1 mi
1:00 AM37 °FClear.3 mph93%30.13 "Hg7 mi
12:00 AM39 °FClear.2 mph93%30.12 "Hg9 mi
11:00 PM
Tue, Jun 28
41 °FSunny.No wind93%30.11 "Hg9 mi
10:00 PM46 °FScattered clouds.5 mph76%30.10 "Hg15 mi
9:00 PM48 °FPartly sunny.7 mph66%30.07 "Hg15 mi
8:00 PM48 °FPartly sunny.5 mph76%30.05 "Hg15 mi
7:00 PM48 °FPartly sunny.7 mph76%30.04 "Hg15 mi
6:00 PM46 °FPartly sunny.7 mph82%30.01 "Hg15 mi
5:49 PM46 °FOvercast.7 mph76%30.01 "Hg15 mi
5:00 PM46 °FOvercast.13 mph76%30.01 "Hg15 mi
4:00 PM45 °FOvercast.9 mph87%29.98 "Hg15 mi
3:00 PM43 °FDrizzle. Mostly cloudy.12 mph93%29.95 "Hg15 mi
2:00 PM43 °FDrizzle. Mostly cloudy.12 mph93%29.93 "Hg8 mi
1:00 PM43 °FDrizzle. Low clouds.14 mph93%29.92 "Hg8 mi
12:00 PM43 °FLight rain. Mostly cloudy.10 mph93%29.88 "Hg10 mi
11:00 AM43 °FLow clouds.12 mph93%29.86 "Hg12 mi
10:00 AM41 °FLight rain. Mostly cloudy.15 mph93%29.83 "Hg12 mi
9:00 AM43 °FLight rain. Fog.12 mph93%29.81 "Hg6 mi
8:00 AM43 °FLight rain. Fog.13 mph93%29.79 "Hg6 mi
7:00 AM45 °FLight rain. Fog.14 mph93%29.75 "Hg6 mi
6:00 AM46 °FLight rain. Fog.13 mph93%29.71 "Hg6 mi
Weather by CustomWeather, © 2016

See weather overviewHow to use our weather pages